Simultaneous Nadir Overpasses (SNOs) Predictions

Prediction of SNOs between METOP-B and NOAA-19 Satellite Orbit:

Table of predicted SNOs for the next 14.0 days since TLE Epoch: 4/17/2020
Index Date (METOP-B) Time (METOP-B) Lat,Lon (METOP-B) SZA (METOP-B ) Date (NOAA-19) Time (NOAA-19) Lat,Lon (NOAA-19) SZA (NOAA-19 ) Distance(km) Time Diff (sec)
1 04/27/2020 13:39:52 -79.95, 176.83 113.40 04/27/2020 13:38:38 -79.92, 176.92 113.44 3.31 74
2 04/27/2020 14:30:33 79.94, -15.96 66.57 04/27/2020 14:29:43 79.94, -16.02 66.55 1.22 50
3 04/27/2020 15:21:14 -79.94, 151.37 113.44 04/27/2020 15:20:39 -79.93, 151.30 113.46 1.48 35
4 04/27/2020 16:11:55 79.93, -41.42 66.53 04/27/2020 16:11:43 79.92, -41.32 66.53 1.88 12
5 04/27/2020 17:02:36 -79.93, 125.91 113.49 04/27/2020 17:02:39 -79.92, 125.99 113.49 1.80 3
6 04/27/2020 17:53:17 79.91, -66.88 66.49 04/27/2020 17:53:44 79.93, -66.94 66.51 2.25 27
7 04/27/2020 18:43:58 -79.91, 100.45 113.53 04/27/2020 18:44:40 -79.93, 100.38 113.51 2.09 42
8 04/27/2020 19:34:39 79.90, -92.34 66.45 04/27/2020 19:35:44 79.92, -92.24 66.49 2.53 65




NCC Satellite Simultaneous Nadir Overpasses (SNOs) Prediction Service
